Starlink 31239

operational
NORAD ID: 60093 Int'l Des: 2024-117 Owner: SPXS Country: US Constellation: starlink
LEOCIRCULAR

Starlink 31239について

説明を読み込み中...

リアルタイム位置

3D地球を読み込み中...

次回通過

高度履歴

Altitude vs Time

uPlot chart will show altitude changes over time

軌道要素

1 60093U 24117C 25350.35476340 .00006117 00000-0 21829-3 0 9990
2 60093 53.1607 64.4859 0001146 70.6158 289.4967 15.30230651 84123
Epoch: Dec 16, 2025 • Age: 19 hours

現在のステータス

高度 475.3 km
速度 7.63 km/s
衛星直下点 3.70°N, 72.58°W
打ち上げ日 Jun 23, 2024
運用期間 1.4 years
タイプ internet

技術仕様

分類 Payload
質量 730.00 kg
乾燥質量 700.00 kg
総質量 730.00 kg
長さ 0.30 m
直径 4.10 m
スパン 29.00 m
形状 Box + pan
製造者 SPXS
バスタイプ Starlink V2M
フェーズステータス In Orbit
所有者/国 SPXS/US

大規模コンステレーション

Loading constellations...